Regional Weather Roundup
Issued by NWS

Home | Current Version | Previous Version | Graphics & Text | Print | Product List | Glossary On
Versions: 1 2 3 4 5 6 7 8 9 10 11 12 13 14 15 16 17 18 19 20 21 22 23 24 25 26 27
000
ASUS45 KSLC 241810
RWRUT

UTAH REGIONAL WEATHER ROUNDUP
NATIONAL WEATHER SERVICE SALT LAKE CITY UT
1200 PM MDT SUN JUL 24 2016

UTZ001>011-023>025-241900-

NORTHERN UTAH

CITY           SKY/WX    TMP DP  RH WIND       PRES   REMARKS
BRIGHAM CITY     N/A     83  24  11 CALM      30.13F
HILL AFB       SUNNY     82  33  16 VRB1      30.16S
LOGAN          SUNNY     77  33  20 CALM      30.16F
OGDEN          SUNNY     84  35  17 NW7       30.13S
PROVO AIRPORT  SUNNY     79  37  22 S7        30.14F
SALT LAKE CITY MOSUNNY   87  33  14 NW8       30.11F
VERNAL         SUNNY     86  32  14 S6        30.16F
WENDOVER       SUNNY     81  27  13 SE3       30.14F
HEBER CITY     SUNNY     79  28  15 CALM      30.19F

$$

UTZ012>022-026-027-241900-

SOUTHERN/CENTRAL UTAH

CITY           SKY/WX    TMP DP  RH WIND       PRES   REMARKS
BLANDING       SUNNY     88  41  19 CALM      30.28F
BRYCE CANYON   SUNNY     85  28  12 W8G23     30.34F
CEDAR CITY     SUNNY     88  38  17 VRB6      30.18S
DELTA          SUNNY     84  27  12 E5        30.14S
MILFORD        SUNNY     88  26  10 VRB3      30.15F
MOAB/CYNLANDS  SUNNY     95  41  15 MISG      30.06F HX  91
PRICE          SUNNY     86  37  17 S9        30.19F
ST GEORGE      CLEAR     99  48  18 N5        29.97F HX  95

$$

REGIONAL REPORTS     COLORADO/ARIZONA

CITY           SKY/WX    TMP DP  RH WIND       PRES   REMARKS
CRAIG, CO      CLOUDY    85  37  18 NE6       30.24R
GRAND JUNCTION SUNNY     92  43  18 SE9       30.10F
RIFLE          SUNNY     87  43  21 VRB5      30.17F
MONTROSE       SUNNY     87  44  22 NW5       30.20F
CORTEZ         SUNNY     91  42  18 SW7       30.21F
PAGE, AZ       SUNNY     96  40  14 VRB3      30.06F HX  92
GRAND CANYON   SUNNY     88  45  22 S12G20    30.30F
KINGMAN        SUNNY     95  51  22 SW25      30.06R HX  92
FLAGSTAFF      MOSUNNY   79  50  36 SW14      30.35S

$$

REGIONAL REPORTS    NEVADA/IDAHO/WYOMING

CITY           SKY/WX    TMP DP  RH WIND       PRES   REMARKS
LAS VEGAS, NV  SUNNY    104  43  12 SE8       29.85F HX  99
ELY            SUNNY     80  25  13 E5        30.23F
ELKO           SUNNY     80  25  13 E6        30.16F
POCATELLO, ID  SUNNY     77  38  24 NW6       30.18F
BURLEY         SUNNY     75  39  27 CALM      30.15F
EVANSTON, WY   SUNNY     79  22  12 W9        30.31F
ROCK SPRINGS   SUNNY     79  27  14 E7        30.29F
KEMMERER         N/A     77  23  13 W10G17    30.33F

$$




USA.gov is the U.S. government's official web portal to all federal, state and local government web resources and services.